Regional Weather Roundup
Issued by NWS

Home | Current Version | Previous Version | Graphics & Text | Print | Product List | Glossary On
Versions: 1 2 3 4 5 6 7 8 9 10 11 12 13 14 15 16 17 18 19 20 21 22 23 24 25 26 27 28 29 30 31 32 33 34 35 36 37 38 39 40 41 42 43 44 45 46 47 48 49 50
000
ASUS43 KBIS 050902
RWRND

NORTH DAKOTA REGIONAL WEATHER ROUNDUP
NATIONAL WEATHER SERVICE BISMARCK ND
400 AM CDT WED AUG 05 2015

NOTE: "FAIR" INDICATES FEW OR NO CLOUDS BELOW 12,000 FEET WITH NO
SIGNIFICANT WEATHER AND/OR OBSTRUCTIONS TO VISIBILITY.


NDZ001>003-009>011-017-051000-
NORTHWEST NORTH DAKOTA

CITY           SKY/WX    TMP DP  RH WIND       PRES   REMARKS
WILLISTON      LGT RAIN  70  61  73 NE3       29.90F
MINOT          CLOUDY    63  55  75 SE6       29.94F
MINOT AFB      CLOUDY    62  58  89 SE9       29.93F
$$

NDZ018>021-031>035-040>046-051000-
SOUTHWEST NORTH DAKOTA

CITY           SKY/WX    TMP DP  RH WIND       PRES   REMARKS
BISMARCK       CLOUDY    64  57  78 E9        29.98F
DICKINSON      CLOUDY    62  59  90 SE9       29.93F
GARRISON         N/A     64  60  87 SE7       29.95F
HETTINGER ARPT CLOUDY    64  61  90 E8        29.96F
$$

NDZ004>008-012>016-024-026-027-054-051000-
NORTHEAST NORTH DAKOTA

CITY           SKY/WX    TMP DP  RH WIND       PRES   REMARKS
GRAND FORKS    PTCLDY    55  52  89 CALM      30.03F
GRND FRKS AFB  PTCLDY    51  50  95 CALM      30.03F
DEVILS LAKE    PTCLDY    61  50  67 SE9       30.01F
$$

NDZ022-023-025-028>030-036>039-047>053-051000-
SOUTHEAST NORTH DAKOTA

CITY           SKY/WX    TMP DP  RH WIND       PRES   REMARKS
FARGO          CLEAR     58  52  80 SE5       30.03S
JAMESTOWN      PTCLDY    57  53  86 E6        30.02S
$$




USA.gov is the U.S. government's official web portal to all federal, state and local government web resources and services.